Tracking 33181 objects as of 19-Feb-2026
HD Live streaming from Space Station
objects crossing your sky now

DELTA 1 DEB

Track DELTA 1 DEB now!
10-day predictions


NORAD ID: 14509
Int'l Code: 1976-077EQ
Perigee: 1,506.6 km
Apogee: 1,759.7 km
Inclination: 102.4 °
Period: 118.8 minutes
Semi major axis: 8004 km
RCS: 0.1037 m2 (medium)
Launch date: July 29, 1976
Source: United States (US)
Launch site: AIR FORCE WESTERN TEST RANGE (AFWTR)

Note: This is SATELLITE DEBRIS
Your satellite tracking list
Your tracking list is empty




NASA's NSSDC Master Catalog

Two Line Element Set (TLE):
1 14509U 76077EQ  26049.83238806 -.00000033  00000-0  95790-4 0  9996
2 14509 102.3557  19.2540 0158098  92.8190 338.0957 12.12350287918302
Source of the keplerian elements: AFSPC